| time (UTC) | temp C | wind direction | speed KPH | gust KPH | rain 1hr cm | rain 24hr cm | rain mn cm | humidity % | barometer mb |
| 20260506123004 | 19 | 197 | 8.0 | 19.3 | 0.00 | 0.00 | 0.00 | 65 | 1005.6 |
| 20260506122503 | 19 | 186 | 8.0 | 32.2 | 0.00 | 0.00 | 0.00 | 64 | 1005.6 |
| 20260506122003 | 19 | 194 | 9.7 | 32.2 | 0.00 | 0.00 | 0.00 | 65 | 1005.8 |
| 20260506121504 | 20 | 201 | 9.7 | 25.7 | 0.00 | 0.00 | 0.00 | 65 | 1005.9 |
| 20260506121004 | 20 | 197 | 9.7 | 25.7 | 0.00 | 0.00 | 0.00 | 64 | 1005.8 |
| 20260506120503 | 20 | 186 | 9.7 | 22.5 | 0.00 | 0.00 | 0.00 | 64 | 1006.0 |
| 20260506120003 | 20 | 184 | 9.7 | 25.7 | 0.00 | 0.00 | 0.00 | 64 | 1006.0 |
| 20260506115503 | 20 | 187 | 11.3 | 25.7 | 0.00 | 0.00 | 0.00 | 64 | 1006.0 |
| 20260506115004 | 20 | 188 | 11.3 | 27.4 | 0.00 | 0.00 | 0.00 | 64 | 1006.1 |
| 20260506114504 | 20 | 192 | 11.3 | 27.4 | 0.00 | 0.00 | 0.00 | 66 | 1006.1 |
| 20260506114003 | 19 | 192 | 9.7 | 20.9 | 0.00 | 0.00 | 0.00 | 65 | 1006.0 |
| 20260506113503 | 19 | 181 | 9.7 | 22.5 | 0.00 | 0.00 | 0.00 | 66 | 1006.1 |
| 20260506113003 | 19 | 177 | 9.7 | 25.7 | 0.00 | 0.00 | 0.00 | 66 | 1006.0 |
| 20260506112504 | 19 | 183 | 11.3 | 29.0 | 0.00 | 0.00 | 0.00 | 67 | 1006.1 |
| 20260506112003 | 19 | 185 | 8.0 | 29.0 | 0.00 | 0.00 | 0.00 | 67 | 1006.1 |
| 20260506111503 | 19 | 188 | 6.4 | 14.5 | 0.00 | 0.00 | 0.00 | 68 | 1006.0 |
| 20260506111003 | 18 | 186 | 8.0 | 25.7 | 0.00 | 0.00 | 0.00 | 68 | 1006.0 |
| 20260506110503 | 18 | 179 | 8.0 | 25.7 | 0.00 | 0.00 | 0.00 | 69 | 1006.0 |
| 20260506110004 | 18 | 176 | 6.4 | 12.9 | 0.00 | 0.00 | 0.00 | 69 | 1005.8 |
| 20260506105503 | 18 | 177 | 6.4 | 16.1 | 0.00 | 0.00 | 0.00 | 69 | 1005.7 |
| 20260506105003 | 18 | 181 | 6.4 | 16.1 | 0.00 | 0.00 | 0.00 | 70 | 1005.8 |
| 20260506104504 | 18 | 189 | 6.4 | 12.9 | 0.00 | 0.00 | 0.00 | 70 | 1006.0 |
| 20260506104004 | 18 | 182 | 6.4 | 19.3 | 0.00 | 0.00 | 0.00 | 70 | 1006.0 |
| 20260506103503 | 18 | 174 | 6.4 | 19.3 | 0.00 | 0.00 | 0.00 | 71 | 1005.9 |
| 20260506103003 | 18 | 181 | 4.8 | 16.1 | 0.00 | 0.00 | 0.00 | 71 | 1005.9 |
| 20260506102503 | 18 | 185 | 4.8 | 16.1 | 0.00 | 0.00 | 0.00 | 72 | 1005.8 |
| 20260506102003 | 18 | 185 | 4.8 | 16.1 | 0.00 | 0.00 | 0.00 | 72 | 1005.9 |
| 20260506101504 | 17 | 184 | 4.8 | 11.3 | 0.00 | 0.00 | 0.00 | 72 | 1005.9 |
| 20260506101004 | 17 | 190 | 4.8 | 16.1 | 0.00 | 0.00 | 0.00 | 73 | 1005.8 |
| 20260506100503 | 17 | 189 | 3.2 | 16.1 | 0.00 | 0.00 | 0.00 | 73 | 1005.7 |
| 20260506100004 | 17 | 173 | 3.2 | 9.7 | 0.00 | 0.00 | 0.00 | 73 | 1005.7 |
| 20260506095503 | 17 | 168 | 3.2 | 9.7 | 0.00 | 0.00 | 0.00 | 73 | 1005.7 |
| 20260506095003 | 17 | 178 | 3.2 | 9.7 | 0.00 | 0.00 | 0.00 | 73 | 1005.6 |
| 20260506094503 | 17 | 187 | 1.6 | 8.0 | 0.00 | 0.00 | 0.00 | 73 | 1005.7 |
| 20260506094004 | 17 | 188 | 1.6 | 11.3 | 0.00 | 0.00 | 0.00 | 73 | 1005.7 |
| 20260506093504 | 17 | 187 | 1.6 | 11.3 | 0.00 | 0.00 | 0.00 | 73 | 1005.7 |
| 20260506093004 | 17 | 191 | 3.2 | 12.9 | 0.00 | 0.00 | 0.00 | 72 | 1005.6 |
| 20260506092503 | 17 | 190 | 3.2 | 12.9 | 0.00 | 0.00 | 0.00 | 72 | 1005.6 |
| 20260506092003 | 17 | 178 | 3.2 | 11.3 | 0.00 | 0.00 | 0.00 | 72 | 1005.7 |
| 20260506091503 | 17 | 172 | 1.6 | 6.4 | 0.00 | 0.00 | 0.00 | 72 | 1005.8 |
| 20260506091004 | 18 | 163 | 1.6 | 12.9 | 0.00 | 0.00 | 0.00 | 71 | 1005.8 |
| 20260506090504 | 18 | 176 | 3.2 | 12.9 | 0.00 | 0.00 | 0.00 | 71 | 1005.9 |
| 20260506090003 | 18 | 188 | 4.8 | 11.3 | 0.00 | 0.00 | 0.00 | 71 | 1005.9 |
| 20260506085503 | 18 | 183 | 4.8 | 19.3 | 0.00 | 0.00 | 0.00 | 70 | 1005.9 |
| 20260506085003 | 18 | 181 | 3.2 | 19.3 | 0.00 | 0.00 | 0.00 | 70 | 1006.0 |
| 20260506084504 | 18 | 181 | 3.2 | 12.9 | 0.00 | 0.00 | 0.00 | 70 | 1006.0 |
| 20260506084003 | 18 | 185 | 1.6 | 11.3 | 0.00 | 0.00 | 0.00 | 70 | 1006.0 |
| 20260506083503 | 18 | 193 | 1.6 | 9.7 | 0.00 | 0.00 | 0.00 | 70 | 1006.0 |
| 20260506083003 | 18 | 176 | 1.6 | 9.7 | 0.00 | 0.00 | 0.00 | 69 | 1006.0 |
| 20260506082503 | 18 | 175 | 1.6 | 9.7 | 0.00 | 0.00 | 0.00 | 69 | 1006.0 |
| 20260506082004 | 18 | 172 | 0.0 | 8.0 | 0.00 | 0.00 | 0.00 | 68 | 1006.0 |
| 20260506081503 | 18 | 174 | 1.6 | 12.9 | 0.00 | 0.00 | 0.00 | 68 | 1006.0 |
| 20260506081003 | 18 | 172 | 1.6 | 12.9 | 0.00 | 0.00 | 0.00 | 68 | 1006.0 |
| 20260506080503 | 18 | 167 | 1.6 | 8.0 | 0.00 | 0.00 | 0.00 | 67 | 1006.0 |
| 20260506073504 | 19 | 185 | 3.2 | 12.9 | 0.00 | 0.00 | 0.00 | 65 | 1006.0 |
| 20260506073004 | 19 | 187 | 3.2 | 14.5 | 0.00 | 0.00 | 0.00 | 65 | 1006.0 |
| 20260506072503 | 19 | 187 | 3.2 | 14.5 | 0.00 | 0.00 | 0.00 | 64 | 1006.0 |
| 20260506072003 | 19 | 187 | 3.2 | 11.3 | 0.00 | 0.00 | 0.00 | 64 | 1006.0 |
| 20260506071503 | 19 | 174 | 3.2 | 11.3 | 0.00 | 0.00 | 0.00 | 64 | 1006.0 |
| 20260506071004 | 19 | 174 | 3.2 | 11.3 | 0.00 | 0.00 | 0.00 | 63 | 1006.0 |
| 20260506070504 | 19 | 192 | 1.6 | 9.7 | 0.00 | 0.00 | 0.00 | 63 | 1006.0 |
| 20260506062503 | 20 | 167 | 3.2 | 9.7 | 0.00 | 0.00 | 0.00 | 60 | 1006.2 |
| 20260506062004 | 20 | 185 | 3.2 | 11.3 | 0.00 | 0.00 | 0.00 | 60 | 1006.1 |
| 20260506061504 | 20 | 184 | 4.8 | 12.9 | 0.00 | 0.00 | 0.00 | 59 | 1006.1 |
| 20260506061003 | 20 | 177 | 4.8 | 22.5 | 0.00 | 0.00 | 0.00 | 59 | 1006.0 |
| 20260506060503 | 20 | 173 | 4.8 | 22.5 | 0.00 | 0.00 | 0.00 | 59 | 1006.0 |
| 20260506051003 | 20 | 184 | 4.8 | 11.3 | 0.00 | 0.00 | 0.00 | 55 | 1006.7 |
| 20260506050503 | 20 | 189 | 3.2 | 12.9 | 0.00 | 0.00 | 0.00 | 55 | 1006.7 |
| 20260506045003 | 21 | 181 | 4.8 | 17.7 | 0.00 | 0.00 | 0.00 | 54 | 1006.6 |
| 20260506044504 | 21 | 191 | 3.2 | 12.9 | 0.00 | 0.00 | 0.00 | 53 | 1006.6 |
| 20260506044004 | 21 | 205 | 4.8 | 12.9 | 0.00 | 0.00 | 0.00 | 53 | 1006.7 |
| 20260506043503 | 21 | 199 | 4.8 | 12.9 | 0.00 | 0.00 | 0.00 | 53 | 1006.7 |
| 20260506043003 | 21 | 186 | 4.8 | 17.7 | 0.00 | 0.00 | 0.00 | 53 | 1006.6 |
| 20260506042503 | 21 | 182 | 4.8 | 17.7 | 0.00 | 0.00 | 0.00 | 52 | 1006.6 |
| 20260506042004 | 21 | 179 | 4.8 | 16.1 | 0.00 | 0.00 | 0.00 | 52 | 1006.6 |
| 20260506041504 | 21 | 175 | 3.2 | 16.1 | 0.00 | 0.00 | 0.00 | 52 | 1006.5 |
| 20260506041004 | 21 | 178 | 3.2 | 11.3 | 0.00 | 0.00 | 0.00 | 52 | 1006.6 |
| 20260506040503 | 21 | 177 | 3.2 | 12.9 | 0.00 | 0.00 | 0.00 | 52 | 1006.5 |
| 20260506040004 | 21 | 182 | 3.2 | 12.9 | 0.00 | 0.00 | 0.00 | 52 | 1006.5 |
| 20260506035504 | 21 | 195 | 3.2 | 9.7 | 0.00 | 0.00 | 0.00 | 52 | 1006.4 |
| 20260506035004 | 21 | 197 | 4.8 | 17.7 | 0.00 | 0.00 | 0.00 | 51 | 1006.5 |
| 20260506034503 | 21 | 195 | 4.8 | 19.3 | 0.00 | 0.00 | 0.00 | 51 | 1006.5 |
| 20260506034003 | 21 | 191 | 6.4 | 19.3 | 0.00 | 0.00 | 0.00 | 51 | 1006.6 |
| 20260506033503 | 21 | 193 | 6.4 | 19.3 | 0.00 | 0.00 | 0.00 | 50 | 1006.5 |
| 20260506033004 | 21 | 190 | 6.4 | 19.3 | 0.00 | 0.00 | 0.00 | 50 | 1006.5 |
| 20260506032503 | 21 | 184 | 6.4 | 20.9 | 0.00 | 0.00 | 0.00 | 50 | 1006.5 |
| 20260506032003 | 21 | 179 | 4.8 | 20.9 | 0.00 | 0.00 | 0.00 | 50 | 1006.5 |
| 20260506031503 | 21 | 182 | 4.8 | 17.7 | 0.00 | 0.00 | 0.00 | 50 | 1006.5 |
| 20260506031003 | 21 | 181 | 6.4 | 20.9 | 0.00 | 0.00 | 0.00 | 49 | 1006.5 |
| 20260506030504 | 22 | 176 | 8.0 | 20.9 | 0.00 | 0.00 | 0.00 | 49 | 1006.5 |
| 20260506030003 | 22 | 184 | 8.0 | 19.3 | 0.00 | 0.00 | 0.00 | 49 | 1006.4 |
| 20260506025503 | 22 | 188 | 9.7 | 20.9 | 0.00 | 0.00 | 0.00 | 48 | 1006.4 |
| 20260506025003 | 22 | 183 | 9.7 | 29.0 | 0.00 | 0.00 | 0.00 | 47 | 1006.3 |
| 20260506024504 | 22 | 186 | 8.0 | 29.0 | 0.00 | 0.00 | 0.00 | 47 | 1006.3 |
| 20260506024003 | 22 | 192 | 6.4 | 19.3 | 0.00 | 0.00 | 0.00 | 45 | 1006.4 |
| 20260506023504 | 22 | 189 | 6.4 | 25.7 | 0.00 | 0.00 | 0.00 | 44 | 1006.3 |
| 20260506023003 | 23 | 189 | 6.4 | 25.7 | 0.00 | 0.00 | 0.00 | 43 | 1006.4 |
| 20260506022504 | 23 | 198 | 4.8 | 20.9 | 0.00 | 0.00 | 0.00 | 42 | 1006.3 |
| 20260506022003 | 23 | 194 | 6.4 | 20.9 | 0.00 | 0.00 | 0.00 | 41 | 1006.3 |
| 20260506021504 | 23 | 187 | 6.4 | 19.3 | 0.00 | 0.00 | 0.00 | 40 | 1006.2 |
| 20260506021003 | 23 | 189 | 4.8 | 16.1 | 0.00 | 0.00 | 0.00 | 39 | 1006.2 |
| 20260506020503 | 23 | 193 | 6.4 | 20.9 | 0.00 | 0.00 | 0.00 | 38 | 1006.1 |
| 20260506020004 | 23 | 184 | 9.7 | 20.9 | 0.00 | 0.00 | 0.00 | 38 | 1006.1 |
| 20260506015503 | 23 | 182 | 8.0 | 29.0 | 0.00 | 0.00 | 0.00 | 37 | 1006.1 |
| 20260506015003 | 23 | 189 | 6.4 | 29.0 | 0.00 | 0.00 | 0.00 | 36 | 1006.1 |
| 20260506014503 | 24 | 187 | 8.0 | 19.3 | 0.00 | 0.00 | 0.00 | 36 | 1006.1 |
| 20260506014003 | 24 | 184 | 8.0 | 22.5 | 0.00 | 0.00 | 0.00 | 35 | 1005.9 |
| 20260506013503 | 24 | 182 | 4.8 | 22.5 | 0.00 | 0.00 | 0.00 | 35 | 1005.7 |
| 20260506013004 | 24 | 173 | 4.8 | 17.7 | 0.00 | 0.00 | 0.00 | 35 | 1005.7 |
| 20260506012503 | 24 | 179 | 6.4 | 19.3 | 0.00 | 0.00 | 0.00 | 34 | 1005.6 |
| 20260506012004 | 24 | 191 | 8.0 | 19.3 | 0.00 | 0.00 | 0.00 | 34 | 1005.6 |
| 20260506011503 | 25 | 193 | 9.7 | 22.5 | 0.00 | 0.00 | 0.00 | 33 | 1005.6 |
| 20260506011004 | 25 | 187 | 8.0 | 22.5 | 0.00 | 0.00 | 0.00 | 33 | 1005.5 |
| 20260506010503 | 25 | 182 | 4.8 | 22.5 | 0.00 | 0.00 | 0.00 | 33 | 1005.5 |
| 20260506010004 | 25 | 184 | 6.4 | 17.7 | 0.00 | 0.00 | 0.00 | 32 | 1005.4 |
| 20260506005503 | 25 | 186 | 8.0 | 19.3 | 0.00 | 0.00 | 0.00 | 31 | 1005.4 |
| 20260506005003 | 25 | 182 | 6.4 | 19.3 | 0.00 | 0.00 | 0.00 | 31 | 1005.4 |
| 20260506004504 | 25 | 185 | 4.8 | 19.3 | 0.00 | 0.00 | 0.00 | 30 | 1005.3 |
| 20260506004003 | 25 | 193 | 8.0 | 17.7 | 0.00 | 0.00 | 0.00 | 29 | 1005.2 |
| 20260506003504 | 25 | 189 | 8.0 | 19.3 | 0.00 | 0.00 | 0.00 | 29 | 1005.1 |
| 20260506003003 | 25 | 187 | 6.4 | 20.9 | 0.00 | 0.00 | 0.00 | 28 | 1005.0 |
| 20260506002503 | 25 | 187 | 8.0 | 20.9 | 0.00 | 0.00 | 0.00 | 27 | 1005.0 |
| 20260506002003 | 25 | 189 | 8.0 | 20.9 | 0.00 | 0.00 | 0.00 | 27 | 1004.9 |
| 20260506001503 | 25 | 187 | 6.4 | 20.9 | 0.00 | 0.00 | 0.00 | 27 | 1004.9 |
| 20260506001004 | 26 | 188 | 8.0 | 22.5 | 0.00 | 0.00 | 0.00 | 27 | 1004.9 |
| 20260506000503 | 26 | 186 | 9.7 | 22.5 | 0.00 | 0.00 | 0.00 | 27 | 1004.8 |
| 20260506000004 | 26 | 183 | 8.0 | 20.9 | 0.00 | 0.00 | 0.00 | 27 | 1004.7 |
| 20260505235503 | 26 | 197 | 6.4 | 22.5 | 0.00 | 0.00 | 0.00 | 26 | 1004.8 |
| 20260505235004 | 26 | 201 | 6.4 | 22.5 | 0.00 | 0.00 | 0.00 | 26 | 1004.8 |
| 20260505234503 | 26 | 196 | 6.4 | 20.9 | 0.00 | 0.00 | 0.00 | 26 | 1004.7 |
| 20260505234004 | 26 | 193 | 6.4 | 20.9 | 0.00 | 0.00 | 0.00 | 25 | 1004.6 |
| 20260505233503 | 26 | 183 | 6.4 | 27.4 | 0.00 | 0.00 | 0.00 | 25 | 1004.6 |
| 20260505233003 | 26 | 179 | 8.0 | 27.4 | 0.00 | 0.00 | 0.00 | 25 | 1004.5 |
| 20260505232503 | 26 | 185 | 6.4 | 17.7 | 0.00 | 0.00 | 0.00 | 25 | 1004.5 |
| 20260505232003 | 26 | 194 | 9.7 | 25.7 | 0.00 | 0.00 | 0.00 | 24 | 1004.5 |
| 20260505231504 | 26 | 191 | 9.7 | 25.7 | 0.00 | 0.00 | 0.00 | 24 | 1004.4 |
| 20260505231003 | 26 | 206 | 8.0 | 25.7 | 0.00 | 0.00 | 0.00 | 24 | 1004.4 |
| 20260505230504 | 26 | 204 | 9.7 | 30.6 | 0.00 | 0.00 | 0.00 | 24 | 1004.2 |
| 20260505230003 | 26 | 183 | 12.9 | 30.6 | 0.00 | 0.00 | 0.00 | 23 | 1004.3 |
| 20260505225504 | 27 | 176 | 11.3 | 27.4 | 0.00 | 0.00 | 0.00 | 23 | 1004.2 |
| 20260505225004 | 27 | 181 | 8.0 | 19.3 | 0.00 | 0.00 | 0.00 | 23 | 1004.1 |
| 20260505224503 | 27 | 192 | 8.0 | 25.7 | 0.00 | 0.00 | 0.00 | 22 | 1004.0 |
| 20260505224003 | 27 | 201 | 9.7 | 30.6 | 0.00 | 0.00 | 0.00 | 22 | 1004.0 |
| 20260505223503 | 27 | 192 | 9.7 | 30.6 | 0.00 | 0.00 | 0.00 | 22 | 1003.9 |
| 20260505223003 | 27 | 192 | 9.7 | 30.6 | 0.00 | 0.00 | 0.00 | 23 | 1004.0 |
| 20260505222504 | 27 | 209 | 8.0 | 30.6 | 0.00 | 0.00 | 0.00 | 22 | 1004.0 |
| 20260505222004 | 27 | 207 | 6.4 | 17.7 | 0.00 | 0.00 | 0.00 | 23 | 1004.0 |
| 20260505221503 | 27 | 188 | 8.0 | 17.7 | 0.00 | 0.00 | 0.00 | 22 | 1003.8 |
| 20260505221003 | 27 | 184 | 9.7 | 27.4 | 0.00 | 0.00 | 0.00 | 22 | 1003.8 |
| 20260505220503 | 27 | 191 | 9.7 | 27.4 | 0.00 | 0.00 | 0.00 | 22 | 1003.9 |
| 20260505220004 | 27 | 201 | 6.4 | 25.7 | 0.00 | 0.00 | 0.00 | 23 | 1003.7 |
| 20260505215504 | 27 | 210 | 6.4 | 25.7 | 0.00 | 0.00 | 0.00 | 23 | 1003.8 |
| 20260505215003 | 27 | 203 | 8.0 | 32.2 | 0.00 | 0.00 | 0.00 | 23 | 1003.7 |
| 20260505214503 | 27 | 198 | 9.7 | 32.2 | 0.00 | 0.00 | 0.00 | 22 | 1003.7 |
| 20260505214003 | 27 | 198 | 11.3 | 29.0 | 0.00 | 0.00 | 0.00 | 22 | 1003.6 |
| 20260505213503 | 27 | 192 | 14.5 | 35.4 | 0.00 | 0.00 | 0.00 | 22 | 1003.5 |
| 20260505213004 | 27 | 193 | 11.3 | 35.4 | 0.00 | 0.00 | 0.00 | 22 | 1003.5 |
| 20260505212503 | 28 | 187 | 11.3 | 32.2 | 0.00 | 0.00 | 0.00 | 23 | 1003.4 |
| 20260505212003 | 28 | 182 | 12.9 | 29.0 | 0.00 | 0.00 | 0.00 | 23 | 1003.4 |
| 20260505211503 | 28 | 189 | 14.5 | 40.2 | 0.00 | 0.00 | 0.00 | 22 | 1003.5 |
| 20260505211003 | 28 | 201 | 11.3 | 40.2 | 0.00 | 0.00 | 0.00 | 22 | 1003.5 |
| 20260505210503 | 28 | 196 | 12.9 | 32.2 | 0.00 | 0.00 | 0.00 | 22 | 1003.4 |
| 20260505210004 | 28 | 181 | 16.1 | 40.2 | 0.00 | 0.00 | 0.00 | 22 | 1003.5 |
| 20260505205503 | 28 | 178 | 9.7 | 40.2 | 0.00 | 0.00 | 0.00 | 22 | 1003.4 |
| 20260505205003 | 28 | 189 | 8.0 | 35.4 | 0.00 | 0.00 | 0.00 | 22 | 1003.4 |
| 20260505204503 | 28 | 188 | 12.9 | 35.4 | 0.00 | 0.00 | 0.00 | 22 | 1003.5 |
| 20260505204003 | 28 | 189 | 14.5 | 27.4 | 0.00 | 0.00 | 0.00 | 23 | 1003.4 |
| 20260505203503 | 28 | 188 | 16.1 | 30.6 | 0.00 | 0.00 | 0.00 | 22 | 1003.5 |
| 20260505203003 | 28 | 187 | 16.1 | 32.2 | 0.00 | 0.00 | 0.00 | 22 | 1003.5 |
| 20260505202503 | 28 | 186 | 16.1 | 32.2 | 0.00 | 0.00 | 0.00 | 22 | 1003.5 |
| 20260505202003 | 28 | 188 | 12.9 | 32.2 | 0.00 | 0.00 | 0.00 | 23 | 1003.6 |
| 20260505201503 | 28 | 185 | 16.1 | 40.2 | 0.00 | 0.00 | 0.00 | 23 | 1003.7 |
| 20260505201004 | 28 | 184 | 17.7 | 40.2 | 0.00 | 0.00 | 0.00 | 22 | 1003.6 |
| 20260505200503 | 28 | 190 | 11.3 | 40.2 | 0.00 | 0.00 | 0.00 | 21 | 1003.7 |
| 20260505200003 | 28 | 194 | 12.9 | 35.4 | 0.00 | 0.00 | 0.00 | 22 | 1003.7 |
| 20260505195503 | 28 | 197 | 11.3 | 35.4 | 0.00 | 0.00 | 0.00 | 23 | 1003.6 |
| 20260505195004 | 28 | 192 | 12.9 | 30.6 | 0.00 | 0.00 | 0.00 | 23 | 1003.8 |
| 20260505194503 | 28 | 188 | 16.1 | 35.4 | 0.00 | 0.00 | 0.00 | 24 | 1003.8 |
| 20260505194003 | 28 | 189 | 17.7 | 35.4 | 0.00 | 0.00 | 0.00 | 23 | 1004.0 |
| 20260505193503 | 28 | 190 | 16.1 | 35.4 | 0.00 | 0.00 | 0.00 | 22 | 1004.0 |
| 20260505193003 | 29 | 194 | 12.9 | 29.0 | 0.00 | 0.00 | 0.00 | 23 | 1004.0 |
| 20260505192504 | 28 | 191 | 14.5 | 33.8 | 0.00 | 0.00 | 0.00 | 24 | 1004.0 |
| 20260505192004 | 28 | 192 | 14.5 | 33.8 | 0.00 | 0.00 | 0.00 | 24 | 1004.2 |
| 20260505191503 | 29 | 198 | 12.9 | 27.4 | 0.00 | 0.00 | 0.00 | 22 | 1004.2 |
| 20260505191003 | 28 | 195 | 14.5 | 30.6 | 0.00 | 0.00 | 0.00 | 23 | 1004.3 |
| 20260505190503 | 28 | 189 | 19.3 | 38.6 | 0.00 | 0.00 | 0.00 | 22 | 1004.5 |
| 20260505190004 | 28 | 189 | 14.5 | 38.6 | 0.00 | 0.00 | 0.00 | 23 | 1004.4 |
| 20260505185504 | 29 | 191 | 14.5 | 40.2 | 0.00 | 0.00 | 0.00 | 24 | 1004.4 |
| 20260505185003 | 28 | 189 | 19.3 | 45.1 | 0.00 | 0.00 | 0.00 | 22 | 1004.6 |
| 20260505184503 | 28 | 189 | 16.1 | 45.1 | 0.00 | 0.00 | 0.00 | 23 | 1004.8 |
| 20260505184004 | 29 | 198 | 14.5 | 45.1 | 0.00 | 0.00 | 0.00 | 24 | 1004.9 |
| 20260505183503 | 29 | 204 | 12.9 | 33.8 | 0.00 | 0.00 | 0.00 | 25 | 1005.0 |
| 20260505183004 | 28 | 199 | 11.3 | 32.2 | 0.00 | 0.00 | 0.00 | 25 | 1004.8 |
| 20260505182503 | 28 | 187 | 11.3 | 29.0 | 0.00 | 0.00 | 0.00 | 26 | 1004.9 |
| 20260505182003 | 28 | 184 | 14.5 | 30.6 | 0.00 | 0.00 | 0.00 | 27 | 1004.8 |
| 20260505181503 | 28 | 182 | 12.9 | 33.8 | 0.00 | 0.00 | 0.00 | 26 | 1004.9 |
| 20260505181004 | 29 | 186 | 8.0 | 33.8 | 0.00 | 0.00 | 0.00 | 26 | 1005.0 |
| 20260505180504 | 29 | 219 | 9.7 | 25.7 | 0.00 | 0.00 | 0.00 | 26 | 1005.1 |
| 20260505180003 | 29 | 214 | 8.0 | 19.3 | 0.00 | 0.00 | 0.00 | 27 | 1005.1 |
| 20260505175503 | 28 | 205 | 6.4 | 27.4 | 0.00 | 0.00 | 0.00 | 28 | 1005.1 |
| 20260505175003 | 28 | 201 | 9.7 | 32.2 | 0.00 | 0.00 | 0.00 | 27 | 1005.1 |
| 20260505174503 | 28 | 188 | 11.3 | 32.2 | 0.00 | 0.00 | 0.00 | 28 | 1005.2 |
| 20260505174003 | 28 | 186 | 12.9 | 32.2 | 0.00 | 0.00 | 0.00 | 28 | 1005.3 |
| 20260505173503 | 28 | 186 | 12.9 | 32.2 | 0.00 | 0.00 | 0.00 | 27 | 1005.5 |
| 20260505173004 | 28 | 187 | 9.7 | 22.5 | 0.00 | 0.00 | 0.00 | 28 | 1005.6 |
| 20260505172504 | 28 | 186 | 11.3 | 27.4 | 0.00 | 0.00 | 0.00 | 29 | 1005.6 |
| 20260505172003 | 28 | 181 | 9.7 | 30.6 | 0.00 | 0.00 | 0.00 | 30 | 1005.6 |
| 20260505171503 | 28 | 191 | 8.0 | 30.6 | 0.00 | 0.00 | 0.00 | 30 | 1005.6 |
| 20260505171004 | 27 | 204 | 8.0 | 20.9 | 0.00 | 0.00 | 0.00 | 31 | 1005.7 |
| 20260505170504 | 27 | 204 | 8.0 | 20.9 | 0.00 | 0.00 | 0.00 | 33 | 1005.7 |
| 20260505170003 | 27 | 183 | 11.3 | 35.4 | 0.00 | 0.00 | 0.00 | 33 | 1006.0 |
| 20260505165503 | 27 | 186 | 9.7 | 35.4 | 0.00 | 0.00 | 0.00 | 32 | 1006.0 |
| 20260505165003 | 27 | 188 | 9.7 | 32.2 | 0.00 | 0.00 | 0.00 | 32 | 1006.1 |
| 20260505164504 | 27 | 187 | 9.7 | 32.2 | 0.00 | 0.00 | 0.00 | 33 | 1006.1 |
| 20260505164004 | 27 | 196 | 8.0 | 25.7 | 0.00 | 0.00 | 0.00 | 32 | 1006.1 |
| 20260505163503 | 27 | 184 | 8.0 | 20.9 | 0.00 | 0.00 | 0.00 | 32 | 1006.2 |
| 20260505163003 | 27 | 203 | 6.4 | 20.9 | 0.00 | 0.00 | 0.00 | 32 | 1006.3 |
| 20260505162503 | 27 | 230 | 6.4 | 17.7 | 0.00 | 0.00 | 0.00 | 33 | 1006.3 |
| 20260505162004 | 27 | 216 | 8.0 | 19.3 | 0.00 | 0.00 | 0.00 | 33 | 1006.5 |
| 20260505161503 | 26 | 214 | 8.0 | 22.5 | 0.00 | 0.00 | 0.00 | 34 | 1006.5 |
| 20260505161003 | 26 | 196 | 4.8 | 22.5 | 0.00 | 0.00 | 0.00 | 35 | 1006.6 |
| 20260505160503 | 26 | 198 | 4.8 | 16.1 | 0.00 | 0.00 | 0.00 | 36 | 1006.6 |
| 20260505153003 | 25 | 186 | 8.0 | 20.9 | 0.00 | 0.00 | 0.00 | 39 | 1007.2 |
| 20260505152503 | 25 | 181 | 8.0 | 20.9 | 0.00 | 0.00 | 0.00 | 39 | 1007.2 |
| 20260505152004 | 25 | 191 | 6.4 | 19.3 | 0.00 | 0.00 | 0.00 | 38 | 1007.2 |
| 20260505151504 | 25 | 249 | 6.4 | 16.1 | 0.00 | 0.00 | 0.00 | 37 | 1007.2 |
| 20260505151003 | 25 | 270 | 4.8 | 16.1 | 0.00 | 0.00 | 0.00 | 39 | 1007.2 |
| 20260505150503 | 25 | 258 | 4.8 | 16.1 | 0.00 | 0.00 | 0.00 | 39 | 1007.3 |
| 20260505140504 | 22 | 193 | 4.8 | 11.3 | 0.00 | 0.00 | 0.00 | 46 | 1007.8 |
| 20260505125003 | 18 | 175 | 3.2 | 12.9 | 0.00 | 0.00 | 0.00 | 62 | 1007.5 |
| 20260505124503 | 17 | 189 | 3.2 | 9.7 | 0.00 | 0.00 | 0.00 | 64 | 1007.6 |
| 20260505124003 | 17 | 192 | 3.2 | 9.7 | 0.00 | 0.00 | 0.00 | 65 | 1007.6 |
| 20260505123503 | 17 | 185 | 3.2 | 14.5 | 0.00 | 0.00 | 0.00 | 68 | 1007.6 |